Location: G�ppingen
(48.7000°N, 9.6670°E)
Time: 21:12:50
(UTC+02:00)

Amateur Radio Satellites - All Passes

Search period start: 21 October 2017 20:42
Search period end: 22 October 2017 20:42
Location: G�ppingen, 48.7000°N, 9.6670°E

Satellite Date Start Highest point End Downlink Frequencies (MHz)
Time Altitude Azimuth
FO-29 21 Oct 20:44:57 20:49:35 18° 87° (E) 20:54:26 435.910
BEESAT 2 21 Oct 20:47:46 20:51:24 30° 40° (NE) 20:55:01 435.950
XW-2A 21 Oct 20:48:02 20:51:05 30° 263° (W) 20:54:10 145.665 - 145.685
AO-73 21 Oct 20:51:18 20:55:54 85° 258° (WSW) 21:00:28 145.935
BEESAT 3 21 Oct 21:01:41 21:05:41 84° 235° (SW) 21:09:37 437.485
CUBEBUG 2 21 Oct 21:04:58 21:08:40 23° 269° (W) 21:12:26 437.445
AO-85 21 Oct 21:10:53 21:15:01 37° 42° (NE) 21:19:27 145.980
ZACube-1 21 Oct 21:14:23 21:18:48 46° 262° (W) 21:23:14 437.345
STRAND 1 21 Oct 21:23:51 21:29:00 70° 288° (WNW) 21:34:07 437.568
DELFI C3 21 Oct 21:34:20 21:38:03 44° 71° (ENE) 21:41:48 145.870
O/OREOS (USA 219) 21 Oct 21:40:14 21:44:48 88° 297° (WNW) 21:49:27 437.305
HO-68 21 Oct 21:41:05 21:44:38 14° 276° (W) 21:48:12 435.675
UWE-3 21 Oct 21:41:23 21:44:26 17° 271° (W) 21:47:29 435.000/436.395/437.385
Oscar 11 21 Oct 21:49:43 21:53:35 32° 264° (W) 21:57:30 .
YUBILEINY 21 Oct 21:53:05 22:01:43 63° 268° (W) 22:10:22 435.215
AAUSAT CUBESAT 2 21 Oct 21:55:46 21:57:15 12° 273° (W) 21:58:45 437.432
EO-88 21 Oct 22:00:28 22:03:57 45° 71° (ENE) 22:07:28 145.990 - 145.960
Max Valier Satellite 21 Oct 22:12:53 22:16:37 87° 68° (ENE) 22:20:22 145.860
BEESAT 2 21 Oct 22:25:25 22:29:14 40° 240° (WSW) 22:32:59 435.950
ESTCUBE 1 21 Oct 22:27:43 22:30:18 15° 58° (ENE) 22:32:54 437.505/2401.250
FO-29 21 Oct 22:28:34 22:35:25 82° 104° (ESE) 22:43:00 435.910
AO-73 21 Oct 22:31:38 22:32:49 11° 275° (W) 22:33:59 145.935
UNISAT 6 21 Oct 22:36:10 22:40:13 29° 94° (E) 22:44:09 437.425
BEESAT 3 21 Oct 22:42:04 22:42:31 10° 251° (WSW) 22:42:57 437.485
LO-87 21 Oct 22:46:36 22:49:28 23° 66° (ENE) 22:52:22 145.935 - 145.965
TIGRISAT 21 Oct 22:50:28 22:54:46 36° 96° (E) 22:58:56 435.000
AO-85 21 Oct 22:51:15 22:55:28 39° 240° (WSW) 22:59:58 145.980
STRAND 1 21 Oct 23:05:01 23:07:17 13° 308° (NW) 23:09:33 437.568
DELFI C3 21 Oct 23:10:21 23:13:02 18° 269° (W) 23:15:45 145.870
PRISM 21 Oct 23:17:58 23:21:39 31° 96° (E) 23:25:20 437.425
O/OREOS (USA 219) 21 Oct 23:22:05 23:24:57 16° 317° (NW) 23:27:49 437.305
EO-88 21 Oct 23:35:38 23:37:51 15° 269° (W) 23:40:04 145.990 - 145.960
AIST 2D 21 Oct 23:44:03 23:46:08 15° 91° (E) 23:48:12 435.315
VELOX 1 21 Oct 23:47:33 23:50:28 18° 60° (ENE) 23:53:24 145.980
YUBILEINY 21 Oct 23:52:37 23:56:38 14° 290° (WNW) 00:00:40 435.215
RS-15 22 Oct 00:01:07 00:11:04 31° 103° (ESE) 00:20:59 29.354- 29.394
ESTCUBE 1 22 Oct 00:02:03 00:06:32 78° 256° (WSW) 00:11:03 437.505/2401.250
UNISAT 6 22 Oct 00:12:44 00:16:58 36° 293° (WNW) 00:21:07 437.425
FO-29 22 Oct 00:14:33 00:19:53 26° 302° (WNW) 00:25:39 435.910
LO-87 22 Oct 00:19:33 00:22:45 30° 264° (W) 00:26:00 145.935 - 145.965
SPROUT 22 Oct 00:26:51 00:31:00 52° 71° (ENE) 00:35:12 437.525
TIGRISAT 22 Oct 00:27:19 00:31:20 29° 295° (WNW) 00:35:15 435.000
50 SAT 22 Oct 00:43:40 00:45:24 14° 63° (ENE) 00:47:09 437.505
DX 1 22 Oct 00:49:13 00:52:20 20° 61° (ENE) 00:55:28 434.975-435.025
EO-79 22 Oct 00:52:23 00:56:18 34° 97° (E) 01:00:10 145.935-145.965
PRISM 22 Oct 00:53:18 00:56:51 29° 294° (WNW) 01:00:26 437.425
POLYITAN 1 22 Oct 00:57:28 01:01:28 38° 97° (E) 01:05:26 437.675
UKube-1 22 Oct 01:10:14 01:13:25 21° 61° (ENE) 01:16:37 .
AIST 2D 22 Oct 01:16:14 01:19:32 41° 288° (WNW) 01:22:48 435.315
QB50P2 22 Oct 01:17:43 01:21:59 68° 102° (ESE) 01:26:13 145.880/145.840
NANOSAT C BR1 22 Oct 01:19:31 01:23:43 57° 101° (E) 01:27:53 145.865
VELOX 1 22 Oct 01:22:08 01:26:28 63° 258° (WSW) 01:30:51 145.980
DUCHIFAT 1 22 Oct 01:29:26 01:33:41 64° 102° (ESE) 01:37:51 145.980
Oscar 19 22 Oct 01:31:04 01:32:56 12° 86° (E) 01:34:47 437.125/150
BUGSAT 1 22 Oct 01:32:16 01:35:25 20° 92° (E) 01:38:32 437.445
SPROUT 22 Oct 02:04:13 02:07:12 18° 269° (W) 02:10:13 437.525
MOZHAYETS 4 22 Oct 02:08:30 02:11:00 15° 57° (ENE) 02:13:30
RS-15 22 Oct 02:09:44 02:22:07 89° 123° (ESE) 02:34:25 29.354- 29.394
Gurwin Techsat 1B 22 Oct 02:12:11 02:16:08 21° 91° (E) 02:20:03 435.225
50 SAT 22 Oct 02:14:15 02:17:23 44° 260° (W) 02:20:33 437.505
M-CUBED/EXP-1 PRIME 22 Oct 02:17:49 02:19:36 13° 98° (E) 02:21:27 437.505
DX 1 22 Oct 02:23:56 02:28:09 54° 259° (W) 02:32:26 434.975-435.025
EO-79 22 Oct 02:28:19 02:31:58 28° 295° (WNW) 02:35:35 145.935-145.965
POLYITAN 1 22 Oct 02:33:35 02:37:05 25° 296° (WNW) 02:40:34 437.675
UKube-1 22 Oct 02:44:57 02:49:07 50° 260° (W) 02:53:20 .
ITUPSAT 1 22 Oct 02:49:31 02:53:42 30° 64° (ENE) 02:57:53 437.325
QB50P2 22 Oct 02:54:41 02:57:16 16° 301° (WNW) 02:59:50 145.880/145.840
NANOSAT C BR1 22 Oct 02:56:09 02:59:01 18° 299° (WNW) 03:01:53 145.865
BEESAT 22 Oct 03:03:40 03:08:07 40° 67° (ENE) 03:12:36 436.000
DUCHIFAT 1 22 Oct 03:06:13 03:08:52 16° 300° (WNW) 03:11:30 145.980
BUGSAT 1 22 Oct 03:06:56 03:11:00 46° 290° (WNW) 03:15:00 437.445
Oscar 19 22 Oct 03:07:55 03:13:05 81° 105° (ESE) 03:18:12 437.125/150
AO-7 22 Oct 03:20:33 03:25:42 17° 86° (E) 03:30:48 .
MOZHAYETS 4 22 Oct 03:42:52 03:47:31 87° 260° (W) 03:52:10
ITAMSAT 1 22 Oct 03:45:25 03:48:06 14° 87° (E) 03:50:47 435.822/435.867
NO-84 22 Oct 03:48:19 03:52:24 44° 139° (SE) 03:56:26 435.350 FM
M-CUBED/EXP-1 PRIME 22 Oct 03:50:49 03:54:17 56° 294° (WNW) 03:57:59 437.505
Gurwin Techsat 1B 22 Oct 03:51:15 03:56:32 64° 289° (WNW) 04:01:47 435.225
CUBESAT XI-V 22 Oct 03:58:34 04:02:45 35° 67° (ENE) 04:06:55 437.345
RS-15 22 Oct 04:24:31 04:36:13 45° 336° (NNW) 04:47:41 29.354- 29.394
ITUPSAT 1 22 Oct 04:26:55 04:31:24 39° 262° (W) 04:35:56 437.325
O/OREOS (USA 219) 22 Oct 04:30:41 04:31:07 10° 35° (NE) 04:31:33 437.305
BEESAT 22 Oct 04:41:53 04:46:00 28° 265° (W) 04:50:09 436.000
Oscar 19 22 Oct 04:48:26 04:51:47 18° 304° (WNW) 04:55:09 437.125/150
KKS-1 22 Oct 04:59:08 05:03:19 43° 68° (ENE) 05:07:33 437.445
AO-7 22 Oct 05:11:33 05:19:53 75° 107° (ESE) 05:28:12 .
ITAMSAT 1 22 Oct 05:23:02 05:28:18 90° 108° (ESE) 05:33:33 435.822/435.867
MOZHAYETS 4 22 Oct 05:23:55 05:25:22 11° 274° (W) 05:26:48
NO-84 22 Oct 05:25:38 05:29:50 53° 338° (NNW) 05:33:54 435.350 FM
STARS 22 Oct 05:27:34 05:31:36 36° 66° (ENE) 05:35:39 437.465
DOVE 4 22 Oct 05:31:31 05:35:17 21° 91° (E) 05:39:11 437.250
Gurwin Techsat 1B 22 Oct 05:33:21 05:35:30 12° 309° (NW) 05:37:39 435.225
CUBESAT XI-V 22 Oct 05:36:03 05:40:08 31° 265° (W) 05:44:14 437.345
O/OREOS (USA 219) 22 Oct 06:07:17 06:11:45 47° 57° (ENE) 06:16:11 437.305
SO-50 22 Oct 06:10:07 06:11:45 12° 109° (ESE) 06:13:25 436.795
KKS-1 22 Oct 06:36:30 06:40:03 23° 267° (W) 06:43:38 437.445
RS-15 22 Oct 06:41:16 06:52:27 38° 9° (N) 07:03:13 29.354- 29.394
KAITUO 1B 22 Oct 06:47:30 06:49:55 16° 91° (E) 06:52:19 145.475/437.950
XW-2F 22 Oct 06:51:43 06:54:43 23° 94° (E) 06:57:42 145.980 - 146.000
NUDT-PHONESAT 22 Oct 06:58:37 07:01:26 21° 93° (E) 07:04:13 437.300
LilacSat-2 22 Oct 07:00:10 07:03:35 32° 96° (E) 07:06:59 437.200
ITAMSAT 1 22 Oct 07:03:49 07:07:04 17° 305° (NW) 07:10:20 435.822/435.867
NO-84 22 Oct 07:04:01 07:07:51 33° 359° (N) 07:11:30 435.350 FM
STARS 22 Oct 07:04:14 07:07:59 27° 265° (W) 07:11:47 437.465
STRAND 1 22 Oct 07:04:56 07:09:40 38° 65° (ENE) 07:14:25 437.568
AO-7 22 Oct 07:04:57 07:12:03 33° 309° (NW) 07:19:10 .
XW-2D 22 Oct 07:05:07 07:08:36 35° 97° (E) 07:12:02 145.860 - 145.880
FO-29 22 Oct 07:06:22 07:07:18 10° 44° (NE) 07:08:15 435.910
DOVE 4 22 Oct 07:08:24 07:13:17 60° 288° (WNW) 07:18:24 437.250
HO-68 22 Oct 07:12:52 07:17:52 20° 88° (E) 07:22:49 435.675
XW-2B 22 Oct 07:18:32 07:22:11 48° 99° (E) 07:25:47 145.730 - 145.750
PCSat 22 Oct 07:25:42 07:27:41 12° 102° (ESE) 07:29:41 145.827
CUTE 1.7 + AOD 2 22 Oct 07:33:27 07:36:22 18° 91° (E) 07:39:16 437.475
SEEDS 22 Oct 07:38:06 07:39:58 13° 88° (E) 07:41:50 437.485
XW-2C 22 Oct 07:41:50 07:45:36 88° 284° (WNW) 07:49:20 145.795 - 145.815
CUTE-I 22 Oct 07:43:39 07:49:01 66° 102° (ESE) 07:54:22 437.470
SO-50 22 Oct 07:46:59 07:51:28 82° 125° (SE) 07:55:59 436.795
O/OREOS (USA 219) 22 Oct 07:47:13 07:50:54 24° 257° (WSW) 07:54:33 437.305
UWE-3 22 Oct 07:51:46 07:52:22 10° 84° (E) 07:52:57 435.000/436.395/437.385
XW-2A 22 Oct 08:06:55 08:08:10 12° 90° (E) 08:09:25 145.665 - 145.685
KAITUO 1B 22 Oct 08:20:36 08:24:07 42° 289° (WNW) 08:27:35 145.475/437.950
XW-2F 22 Oct 08:25:34 08:28:52 31° 292° (WNW) 08:32:10 145.980 - 146.000
NUDT-PHONESAT 22 Oct 08:32:03 08:35:23 33° 291° (WNW) 08:38:40 437.300
LilacSat-2 22 Oct 08:34:43 08:37:43 23° 294° (WNW) 08:40:42 437.200
AO-73 22 Oct 08:36:52 08:39:15 14° 88° (E) 08:41:35 145.935
XW-2D 22 Oct 08:39:43 08:42:35 21° 295° (WNW) 08:45:26 145.860 - 145.880
NO-84 22 Oct 08:41:54 08:45:53 49° 19° (NNE) 08:49:35 435.350 FM
STRAND 1 22 Oct 08:44:16 08:48:53 33° 264° (W) 08:53:33 437.568
FO-29 22 Oct 08:45:48 08:50:56 51° 67° (ENE) 08:56:33 435.910
DOVE 4 22 Oct 08:48:56 08:50:04 11° 306° (NW) 08:51:13 437.250
CUBEBUG 2 22 Oct 08:50:34 08:55:13 65° 101° (E) 08:59:42 437.445
XW-2B 22 Oct 08:53:36 08:56:01 16° 297° (WNW) 08:58:24 145.730 - 145.750
RS-15 22 Oct 08:55:38 09:07:43 65° 41° (NE) 09:19:07 29.354- 29.394
ZACube-1 22 Oct 08:59:02 09:02:45 26° 93° (E) 09:06:23 437.345
HO-68 22 Oct 08:59:18 09:06:34 89° 109° (ESE) 09:13:47 435.675
AO-7 22 Oct 09:00:03 09:02:18 11° 334° (NNW) 09:04:32 .
YUBILEINY 22 Oct 09:03:11 09:10:39 34° 82° (E) 09:18:09 435.215
PCSat 22 Oct 09:04:43 09:10:07 72° 121° (ESE) 09:15:33 145.827
CUTE 1.7 + AOD 2 22 Oct 09:08:25 09:12:29 50° 289° (WNW) 09:16:33 437.475
SEEDS 22 Oct 09:11:59 09:16:09 72° 286° (WNW) 09:20:17 437.485
CUTE-I 22 Oct 09:24:30 09:28:37 23° 301° (WNW) 09:32:44 437.470
UWE-3 22 Oct 09:25:01 09:29:35 84° 102° (ESE) 09:33:59 435.000/436.395/437.385
SO-50 22 Oct 09:28:52 09:32:27 23° 329° (NNW) 09:36:05 436.795
AAUSAT CUBESAT 2 22 Oct 09:30:27 09:34:36 84° 106° (ESE) 09:38:44 437.432
Oscar 11 22 Oct 09:32:27 09:36:25 35° 96° (E) 09:40:21 .
XW-2A 22 Oct 09:37:56 09:41:11 49° 288° (WNW) 09:44:25 145.665 - 145.685
UNISAT 6 22 Oct 09:38:05 09:42:27 41° 68° (ENE) 09:46:52 437.425
TIGRISAT 22 Oct 09:52:11 09:56:42 50° 70° (ENE) 10:01:16 435.000
nSIGHT-1 22 Oct 10:03:41 10:06:07 20° 141° (SE) 10:08:33 .
PRISM 22 Oct 10:10:35 10:14:18 36° 68° (ENE) 10:18:03 437.425
AO-73 22 Oct 10:11:38 10:15:59 67° 286° (WNW) 10:20:12 145.935
NO-84 22 Oct 10:19:32 10:23:17 43° 221° (SW) 10:26:43 435.350 FM
AIST 2D 22 Oct 10:23:01 10:24:13 11° 61° (ENE) 10:25:24 435.315
CUBEBUG 2 22 Oct 10:28:09 10:31:20 18° 300° (WNW) 10:34:26 437.445
FO-29 22 Oct 10:32:05 10:36:28 26° 270° (W) 10:41:11 435.910
ZACube-1 22 Oct 10:35:05 10:39:07 36° 292° (WNW) 10:43:03 437.345
ISS 22 Oct 10:40:29 10:43:28 34° 146° (SE) 10:46:27 437.550
QB50P2 22 Oct 10:41:13 10:42:41 12° 56° (NE) 10:44:09 145.880/145.840
DELFI C3 22 Oct 10:41:35 10:45:23 42° 98° (E) 10:49:10 145.870
HO-68 22 Oct 10:47:58 10:53:28 24° 309° (NW) 10:58:59 435.675
PCSat 22 Oct 10:49:24 10:54:02 28° 322° (NW) 10:58:41 145.827
DUCHIFAT 1 22 Oct 10:52:39 10:53:40 11° 55° (NE) 10:54:41 145.980
YUBILEINY 22 Oct 10:58:20 11:06:55 64° 284° (WNW) 11:15:38 435.215
EO-88 22 Oct 10:58:38 11:01:58 33° 97° (E) 11:05:17 145.990 - 145.960
UWE-3 22 Oct 11:03:00 11:05:22 14° 303° (WNW) 11:07:41 435.000/436.395/437.385
AAUSAT CUBESAT 2 22 Oct 11:07:41 11:09:26 13° 302° (WNW) 11:11:12 437.432
RS-15 22 Oct 11:08:43 11:19:55 50° 248° (WSW) 11:30:34 29.354- 29.394
Oscar 11 22 Oct 11:08:48 11:12:27 27° 295° (WNW) 11:16:04 .
Max Valier Satellite 22 Oct 11:12:31 11:16:13 69° 102° (ESE) 11:19:51 145.860
SO-50 22 Oct 11:13:09 11:14:34 11° 353° (N) 11:15:59 436.795
UNISAT 6 22 Oct 11:15:17 11:19:16 27° 267° (W) 11:23:17 437.425
TIGRISAT 22 Oct 11:30:01 11:33:39 22° 269° (W) 11:37:18 435.000
nSIGHT-1 22 Oct 11:38:52 11:42:04 89° 326° (NW) 11:45:17 .
LO-87 22 Oct 11:42:48 11:45:10 16° 91° (E) 11:47:30 145.935 - 145.965
PRISM 22 Oct 11:46:25 11:49:41 23° 266° (W) 11:52:58 437.425
EO-79 22 Oct 11:48:02 11:52:03 42° 69° (ENE) 11:56:06 145.935-145.965
ESTCUBE 1 22 Oct 11:51:27 11:54:24 17° 90° (E) 11:57:19 437.505/2401.250
POLYITAN 1 22 Oct 11:53:13 11:57:19 47° 70° (ENE) 12:01:28 437.675
AIST 2D 22 Oct 11:53:25 11:56:54 66° 259° (WSW) 12:00:24 435.315
QB50P2 22 Oct 12:13:28 12:17:44 82° 77° (ENE) 12:22:03 145.880/145.840
NANOSAT C BR1 22 Oct 12:14:43 12:18:57 69° 73° (ENE) 12:23:12 145.865
ISS 22 Oct 12:16:35 12:19:49 65° 345° (NNW) 12:23:05 437.550
DELFI C3 22 Oct 12:16:56 12:19:52 20° 296° (WNW) 12:22:49 145.870
BEESAT 2 22 Oct 12:21:38 12:23:25 13° 110° (ESE) 12:25:13 435.950
DUCHIFAT 1 22 Oct 12:24:20 12:28:34 77° 74° (ENE) 12:32:50 145.980
BUGSAT 1 22 Oct 12:25:19 12:28:43 24° 64° (ENE) 12:32:09 437.445
BEESAT 3 22 Oct 12:31:21 12:35:11 45° 122° (ESE) 12:39:03 437.485
EO-88 22 Oct 12:32:41 12:35:26 21° 295° (WNW) 12:38:10 145.990 - 145.960
AO-7 22 Oct 12:36:51 12:40:08 13° 30° (NNE) 12:43:26 .
PCSat 22 Oct 12:37:14 12:39:21 12° 348° (NNW) 12:41:29 145.827
Max Valier Satellite 22 Oct 12:48:04 12:49:31 12° 300° (WNW) 12:50:59 145.860
Oscar 19 22 Oct 12:50:28 12:54:48 28° 62° (ENE) 12:59:07 437.125/150
SO-50 22 Oct 12:54:34 12:56:59 14° 18° (NNE) 12:59:26 436.795
YUBILEINY 22 Oct 13:00:38 13:05:53 17° 310° (NW) 13:11:10 435.215
M-CUBED/EXP-1 PRIME 22 Oct 13:06:37 13:09:32 29° 63° (ENE) 13:12:25 437.505
VELOX 1 22 Oct 13:08:46 13:11:55 19° 91° (E) 13:15:03 145.980
AO-85 22 Oct 13:09:59 13:13:06 23° 116° (ESE) 13:16:17 145.980
LO-87 22 Oct 13:15:19 13:18:47 42° 289° (WNW) 13:22:12 145.935 - 145.965
nSIGHT-1 22 Oct 13:15:26 13:18:32 47° 359° (N) 13:21:39 .
EO-79 22 Oct 13:24:36 13:27:58 22° 267° (W) 13:31:22 145.935-145.965
ESTCUBE 1 22 Oct 13:27:10 13:31:36 60° 288° (WNW) 13:36:00 437.505/2401.250
RS-15 22 Oct 13:27:46 13:28:57 10° 272° (W) 13:30:09 29.354- 29.394
POLYITAN 1 22 Oct 13:30:09 13:33:20 20° 268° (W) 13:36:33 437.675
Gurwin Techsat 1B 22 Oct 13:36:41 13:41:45 47° 67° (ENE) 13:46:51 435.225
SPROUT 22 Oct 13:44:04 13:48:20 58° 101° (E) 13:52:34 437.525
QB50P2 22 Oct 13:52:35 13:54:06 12° 273° (W) 13:55:38 145.880/145.840
NANOSAT C BR1 22 Oct 13:52:56 13:55:08 14° 272° (W) 13:57:20 145.865
ISS 22 Oct 13:53:22 13:56:34 49° 6° (N) 13:59:46 437.550
BEESAT 2 22 Oct 13:56:30 14:00:32 84° 309° (NW) 14:04:38 435.950
BUGSAT 1 22 Oct 13:59:55 14:03:52 39° 262° (W) 14:07:53 437.445
DUCHIFAT 1 22 Oct 14:02:58 14:04:46 12° 272° (W) 14:06:34 145.980
DX 1 22 Oct 14:08:38 14:11:50 19° 92° (E) 14:15:01 434.975-435.025
BEESAT 3 22 Oct 14:09:23 14:12:53 28° 321° (NW) 14:16:25 437.485
PCSat 22 Oct 14:22:57 14:25:18 13° 15° (NNE) 14:27:39 145.827
AO-7 22 Oct 14:23:12 14:30:38 39° 54° (NE) 14:38:05 .
UKube-1 22 Oct 14:28:25 14:31:37 20° 92° (E) 14:34:48 .
Oscar 19 22 Oct 14:28:55 14:33:54 48° 261° (W) 14:38:53 437.125/150
SO-50 22 Oct 14:34:22 14:38:41 39° 41° (NE) 14:43:02 436.795
M-CUBED/EXP-1 PRIME 22 Oct 14:41:37 14:44:04 19° 260° (W) 14:46:29 437.505
VELOX 1 22 Oct 14:44:20 14:48:41 54° 289° (WNW) 14:53:01 145.980
AO-85 22 Oct 14:49:29 14:53:14 44° 316° (NW) 14:57:10 145.980
nSIGHT-1 22 Oct 14:51:51 14:55:03 77° 19° (NNE) 14:58:16 .
50 SAT 22 Oct 15:01:10 15:04:29 88° 103° (ESE) 15:07:47 437.505
ITAMSAT 1 22 Oct 15:06:19 15:10:54 33° 63° (ENE) 15:15:32 435.822/435.867
Gurwin Techsat 1B 22 Oct 15:17:22 15:21:54 28° 266° (W) 15:26:28 435.225
SPROUT 22 Oct 15:20:52 15:23:49 18° 299° (WNW) 15:26:44 437.525
ISS 22 Oct 15:29:54 15:33:10 72° 204° (SSW) 15:36:25 437.550
MOZHAYETS 4 22 Oct 15:34:58 15:37:55 17° 89° (E) 15:40:51
BEESAT 2 22 Oct 15:36:03 15:38:53 18° 330° (NNW) 15:41:45 435.950
DX 1 22 Oct 15:44:03 15:48:18 50° 290° (WNW) 15:52:32 434.975-435.025
UKube-1 22 Oct 16:03:43 16:07:54 48° 290° (WNW) 16:12:03 .
PCSat 22 Oct 16:05:44 16:10:32 30° 39° (NE) 16:15:17 145.827
AO-7 22 Oct 16:14:52 16:23:03 63° 255° (WSW) 16:31:18 .
SO-50 22 Oct 16:14:53 16:19:09 38° 240° (WSW) 16:23:27 436.795
ITUPSAT 1 22 Oct 16:23:02 16:27:33 39° 98° (E) 16:32:01 437.325
nSIGHT-1 22 Oct 16:28:25 16:31:06 25° 217° (SW) 16:33:47 .
AO-85 22 Oct 16:32:48 16:34:43 13° 340° (NNW) 16:36:40 145.980
BEESAT 22 Oct 16:37:00 16:41:43 54° 101° (E) 16:46:22 436.000
DOVE 4 22 Oct 16:41:03 16:44:39 27° 64° (ENE) 16:48:23 437.250
ITAMSAT 1 22 Oct 16:45:23 16:50:16 41° 262° (W) 16:55:12 435.822/435.867
ISS 22 Oct 17:07:12 17:09:12 15° 223° (SW) 17:11:10 437.550
MOZHAYETS 4 22 Oct 17:10:58 17:15:31 63° 288° (WNW) 17:20:01
CUBESAT XI-V 22 Oct 17:27:44 17:32:13 48° 99° (E) 17:36:40 437.345
CUTE-I 22 Oct 17:30:49 17:35:08 26° 60° (ENE) 17:39:30 437.470
KAITUO 1B 22 Oct 17:31:28 17:33:38 15° 62° (ENE) 17:35:48 145.475/437.950
XW-2F 22 Oct 17:36:15 17:39:05 21° 65° (ENE) 17:41:56 145.980 - 146.000
NUDT-PHONESAT 22 Oct 17:41:32 17:44:05 18° 64° (ENE) 17:46:39 437.300
LilacSat-2 22 Oct 17:45:34 17:48:53 29° 67° (ENE) 17:52:12 437.200
HO-68 22 Oct 17:46:06 17:51:40 25° 52° (NE) 17:57:14 435.675
PCSat 22 Oct 17:48:57 17:54:20 63° 240° (WSW) 17:59:39 145.827
XW-2D 22 Oct 17:49:48 17:53:09 30° 68° (ENE) 17:56:30 145.860 - 145.880
ITUPSAT 1 22 Oct 18:01:06 18:05:15 30° 297° (WNW) 18:09:23 437.325
XW-2B 22 Oct 18:03:05 18:06:39 40° 70° (ENE) 18:10:13 145.730 - 145.750
AO-7 22 Oct 18:13:51 18:17:34 13° 277° (W) 18:21:17 .
BEESAT 22 Oct 18:15:25 18:19:09 23° 299° (WNW) 18:22:51 436.000
CUBEBUG 2 22 Oct 18:18:07 18:20:24 14° 56° (NE) 18:22:43 437.445
DOVE 4 22 Oct 18:18:19 18:22:13 35° 264° (W) 18:26:20 437.250
KKS-1 22 Oct 18:22:11 18:26:33 49° 100° (E) 18:30:55 437.445
XW-2C 22 Oct 18:26:13 18:30:00 76° 75° (ENE) 18:33:48 145.795 - 145.815
CUTE 1.7 + AOD 2 22 Oct 18:29:40 18:32:54 22° 64° (ENE) 18:36:08 437.475
SEEDS 22 Oct 18:33:19 18:35:49 16° 60° (ENE) 18:38:18 437.485
STARS 22 Oct 18:48:44 18:52:55 39° 98° (E) 18:57:04 437.465
UWE-3 22 Oct 18:50:53 18:53:43 16° 58° (ENE) 18:56:32 435.000/436.395/437.385
AAUSAT CUBESAT 2 22 Oct 18:51:44 18:53:03 11° 57° (ENE) 18:54:22 437.432
BEESAT 2 22 Oct 18:56:50 18:57:53 11° 18° (NNE) 18:58:54 435.950
KAITUO 1B 22 Oct 19:03:35 19:07:14 53° 260° (W) 19:10:53 145.475/437.950
CUBESAT XI-V 22 Oct 19:05:42 19:09:18 23° 298° (WNW) 19:12:54 437.345
YUBILEINY 22 Oct 19:07:21 19:13:52 22° 55° (NE) 19:20:21 435.215
BEESAT 3 22 Oct 19:07:23 19:10:18 19° 32° (NNE) 19:13:11 437.485
XW-2F 22 Oct 19:09:29 19:13:00 36° 263° (W) 19:16:31 145.980 - 146.000
CUTE-I 22 Oct 19:09:39 19:14:52 55° 259° (W) 19:20:09 437.470
NUDT-PHONESAT 22 Oct 19:14:08 19:17:40 42° 261° (W) 19:21:13 437.300
LilacSat-2 22 Oct 19:19:54 19:23:08 26° 265° (W) 19:26:22 437.200
XW-2D 22 Oct 19:24:14 19:27:21 24° 266° (W) 19:30:28 145.860 - 145.880
HO-68 22 Oct 19:31:25 19:38:36 86° 252° (WSW) 19:45:52 435.675
AO-73 22 Oct 19:35:22 19:38:43 20° 62° (ENE) 19:42:02 145.935
XW-2B 22 Oct 19:38:19 19:41:00 18° 268° (W) 19:43:41 145.730 - 145.750
CUBEBUG 2 22 Oct 19:51:32 19:56:15 83° 76° (ENE) 20:01:03 437.445
AO-85 22 Oct 19:56:05 19:59:10 18° 30° (NNE) 20:02:23 145.980
ZACube-1 22 Oct 19:57:51 20:02:00 34° 67° (ENE) 20:06:08 437.345
KKS-1 22 Oct 19:59:21 20:02:49 22° 298° (WNW) 20:06:16 437.445
XW-2C 22 Oct 20:04:19 20:04:41 10° 273° (W) 20:05:02 145.795 - 145.815
CUTE 1.7 + AOD 2 22 Oct 20:04:26 20:08:29 44° 262° (W) 20:12:32 437.475
SEEDS 22 Oct 20:06:53 20:11:01 65° 259° (WSW) 20:15:11 437.485
XW-2A 22 Oct 20:11:58 20:15:23 87° 253° (WSW) 20:18:49 145.665 - 145.685
AAUSAT CUBESAT 2 22 Oct 20:23:44 20:27:50 88° 76° (ENE) 20:31:58 437.432
O/OREOS (USA 219) 22 Oct 20:24:06 20:27:48 25° 103° (ESE) 20:31:31 437.305
UWE-3 22 Oct 20:24:53 20:29:34 79° 258° (WSW) 20:34:16 435.000/436.395/437.385
STARS 22 Oct 20:25:23 20:29:06 26° 296° (WNW) 20:32:47 437.465
Oscar 11 22 Oct 20:30:34 20:34:40 43° 70° (ENE) 20:38:47 .
BEESAT 2 22 Oct 20:33:10 20:36:50 31° 40° (NE) 20:40:28 435.950
